Regional Weather Roundup
Issued by NWS

Home | Current Version | Previous Version | Graphics & Text | Print | Product List | Glossary On
Versions: 1 2 3 4 5 6 7 8 9 10 11 12 13 14 15 16 17 18 19 20 21 22 23 24 25 26 27 28 29 30 31 32 33 34 35 36 37 38 39 40 41 42 43 44 45 46 47 48 49 50
000
ASUS45 KPSR 040200
RWRAZ

ARIZONA REGIONAL HOURLY WEATHER ROUNDUP
NATIONAL WEATHER SERVICE PHOENIX AZ
700 PM MST SUN MAY 03 2015

NOTE: FAIR INDICATES FEW OR NO CLOUDS BELOW 12,000 FEET WITH NO
SIGNIFICANT WEATHER AND/OR OBSTRUCTIONS TO VISIBILITY.

AZZ001>003-036-040300-
NORTHWEST ARIZONA

CITY           SKY/WX    TMP DP  RH WIND       PRES   REMARKS
KINGMAN        CLEAR     77  36  22 SW16      29.83F
$$

AZZ004>008-015-016-018-040300-
NORTH CENTRAL ARIZONA

CITY           SKY/WX    TMP DP  RH WIND       PRES   REMARKS
GRAND CANYON   MOCLDY    50  39  66 NE5       30.07S
WILLIAMS       MOCLDY    57  39  51 S8        30.10F
PRESCOTT       PTCLDY    69  33  26 SW9       29.94S
FLAGSTAFF      NOT AVBL
PAYSON         CLEAR     70  34  26 SW8       29.96S
PAGE           MOCLDY    71  37  28 NW8G20    29.91S
$$

AZZ009>014-017-040300-
NORTHEAST ARIZONA

CITY           SKY/WX    TMP DP  RH WIND       PRES   REMARKS
WINSLOW        NOT AVBL
SAINT JOHNS    MOCLDY    64  31  28 SW10      29.97S
WINDOW ROCK    MOCLDY    55  39  54 NE6       30.05F
SHOW LOW       MOCLDY    59  28  31 CALM      30.03F
$$

AZZ023-040300-
GREATER PHOENIX AREA

CITY           SKY/WX    TMP DP  RH WIND       PRES   REMARKS
PHOENIX        MOCLDY    91  39  16 W15       29.68S
GLENDALE       PTCLDY    93  41  16 SE14      29.70S THUNDER
LUKE AFB       MOCLDY    91  43  18 S14       29.68S
DEER VALLEY    PTCLDY    87  39  18 NW8       29.70F
SCOTTSDALE     PTCLDY    88  38  17 W6        29.72S
MESA-FALCON    PTCLDY    88  37  16 SW9       29.70S
MESA-GATEWAY   PTCLDY    88  37  16 CALM      29.72S
CHANDLER       MOCLDY    90  39  17 W9        29.69S
$$

AZZ027-028-040300-
SOUTHWEST MARICOPA COUNTY AND PINAL COUNTY

CITY           SKY/WX    TMP DP  RH WIND       PRES   REMARKS
CASA GRANDE    MOCLDY    90  39  17 NW8       29.70S
$$

AZZ503-504-507>509-040300-
SOUTHEAST ARIZONA

CITY           SKY/WX    TMP DP  RH WIND       PRES   REMARKS
TUCSON         CLOUDY    84  36  18 SW6       29.81R
RYAN FIELD       N/A     84  37  18 SW9       29.79F
NOGALES        CLEAR     75  38  26 SW14      29.89R
SAFFORD        CLEAR     81  35  19 N7        29.78F
$$

AZZ020-021-025-026-031-040300-
SOUTHWEST ARIZONA

CITY           SKY/WX    TMP DP  RH WIND       PRES   REMARKS
YUMA           NOT AVBL
$$

CAZ031-033-041-043-047-048-061-040300-
SOUTHERN CALIFORNIA

CITY           SKY/WX    TMP DP  RH WIND       PRES   REMARKS
DOWNTOWN L.A.  CLEAR     62  48  60 VRB7      29.85F
L.A. AIRPORT   PTCLDY    60  50  69 W22       29.85F
SAN DIEGO      MOCLDY    65  52  62 W9        29.88F
BURBANK        CLEAR     67  50  54 S7        29.83F
ONTARIO        CLEAR     68  51  54 W14       29.82S
RIVERSIDE      CLEAR     69  51  52 W10       29.83S
PALM SPRINGS   CLEAR     88  40  18 NW18G25   29.68F
EL CENTRO NAS  LGT RAIN  86  49  27 SE14      29.67S
IMPERIAL       CLEAR     87  49  26 SE17      29.66S
BLYTHE         CLEAR     87  50  27 S14       29.67S
$$

NVZ020-UTZ003-040300-
SOUTHERN NEVADA-UTAH

CITY           SKY/WX    TMP DP  RH WIND       PRES   REMARKS
LAS VEGAS      NOT AVBL
SALT LAKE CITY PTCLDY    71  42  35 N17       29.83R
$$

NMZ009-TXZ055-040300-
NEW MEXICO-WEST TEXAS

CITY           SKY/WX    TMP DP  RH WIND       PRES   REMARKS
ALBUQUERQUE    PTCLDY    68  35  29 N9        29.97R
EL PASO        PTCLDY    83  31  15 W8        29.84R
$$


........................KEY........................
SKY/WX - SKY CONDITION/WEATHER
TMP    - TEMPERATURE IN FAHRENHEIT
DP     - DEW POINT IN FAHRENHEIT
RH     - RELATIVE HUMIDITY IN PERCENT
WIND   - DIRECTION AND SPEED IN MILES PER HOUR (MPH)
VRB    - VARIABLE WIND DIRECTION
PRES   - MEAN SEA LEVEL PRESSURE IN INCHES OF MERCURY
         F - FALLING PRESSURE   R - RISING PRESSURE
         S - STEADY PRESSURE
VSB    - VISIBILITY IN MILES
HX     - HEAT INDEX IN FAHRENHEIT
WCI    - WIND CHILL INDEX IN FAHRENHEIT
TC     - TEMPERATURE IN CELSIUS WHICH IS ALSO KNOWN AS
         TEMPERATURE IN CENTIGRADE
AFB    - AIR FORCE BASE
         LUKE AFB IS LUKE AIR FORCE BASE
         DAVIS-MONTHAN IS DAVIS-MONTHAN AIR FORCE BASE
NAS    - NAVAL AIR STATION
         EL CENTRO NAS IS EL CENTRO NAVAL AIR STATION
N/A    - NOT AVAILABLE



USA.gov is the U.S. government's official web portal to all federal, state and local government web resources and services.